KA2QBS Weather Reports


Display with metric or nautical units.
time (UTC)temp
F
wind
direction
speed
MPH
gust
MPH
rain 1hr
in
rain 24hr
in
rain mn
in
humidity
%
barometer
mb
20260906200045 73 205 0.0 0.0 0.00 0.00 0.00 59 1016.7
20260906194545 74 205 0.0 2.0 0.00 0.01 0.00 55 1016.6
20260906193046 73 94 0.0 0.0 0.00 0.01 0.00 61 1016.6
20260906191542 72 74 0.0 1.0 0.00 0.01 0.00 63 1016.7
20260906190042 73 74 0.0 1.0 0.00 0.01 0.00 59 1016.7
20260906184541 73 74 2.0 4.0 0.00 0.01 0.00 55 1016.8
20260906183040 72 92 0.0 5.0 0.00 0.01 0.00 62 1017.0
20260906181547 72 143 0.0 2.0 0.00 0.01 0.00 61 1017.0
20260906180100 72 165 0.0 1.0 0.00 0.01 0.00 61 1017.0
20260906174538 73 165 0.0 3.0 0.00 0.01 0.00 61 1017.1
20260906173036 72 78 0.0 2.0 0.00 0.01 0.00 62 1017.2
20260906171547 72 78 0.0 3.0 0.00 0.01 0.00 54 1017.2
20260906170038 71 80 0.0 3.0 0.00 0.01 0.00 60 1017.3
20260906164533 72 66 0.0 5.0 0.00 0.01 0.00 59 1017.3
20260906163035 71 225 0.0 0.0 0.00 0.01 0.00 60 1017.4
20260906161533 72 225 0.0 2.0 0.00 0.01 0.00 60 1017.5
20260906160034 72 275 0.0 5.0 0.00 0.01 0.00 61 1017.4
20260906154529 71 101 0.0 5.0 0.00 0.01 0.00 64 1017.6
20260906153029 71 254 0.0 3.0 0.00 0.01 0.00 64 1017.5
20260906151526 70 150 0.0 5.0 0.00 0.01 0.00 64 1017.4
20260906150027 70 195 0.0 1.0 0.00 0.01 0.00 62 1017.5
20260906144523 69 175 0.0 2.0 0.00 0.01 0.00 66 1017.5
20260906143019 69 247 0.0 4.0 0.00 0.01 0.00 66 1017.4
20260906141522 68 273 0.0 6.0 0.00 0.01 0.00 68 1017.3
20260906140015 67 107 0.0 4.0 0.00 0.01 0.00 73 1017.4
20260906134512 66 275 0.0 0.0 0.00 0.01 0.00 76 1017.5
20260906133008 64 274 0.0 5.0 0.00 0.01 0.00 81 1017.4
20260906131505 63 274 0.0 1.0 0.00 0.01 0.00 84 1017.5
20260906130001 63 274 0.0 3.0 0.00 0.01 0.00 86 1017.5
20260906124559 62 274 0.0 1.0 0.00 0.01 0.00 88 1017.4
20260906123055 61 274 0.0 0.0 0.00 0.01 0.00 90 1017.3
20260906121554 60 274 0.0 2.0 0.00 0.01 0.00 93 1017.4
20260906120051 59 274 0.0 1.0 0.00 0.01 0.00 94 1017.3
20260906114552 59 274 0.0 0.0 0.00 0.01 0.00 96 1017.1
20260906113048 58 274 0.0 0.0 0.00 0.01 0.00 96 1017.1
20260906111606 58 274 0.0 0.0 0.00 0.01 0.00 96 1016.8
20260906110043 58 274 0.0 0.0 0.00 0.01 0.00 97 1016.4
20260906104543 58 274 0.0 1.0 0.00 0.01 0.00 97 1016.4
20260906101543 58 274 0.0 0.0 0.00 0.01 0.00 97 1016.2
20260906100042 58 274 0.0 0.0 0.00 0.01 0.00 97 1016.0
20260906094536 58 274 0.0 0.0 0.00 0.01 0.00 97 1015.7
20260906093038 58 274 0.0 0.0 0.00 0.01 0.00 97 1015.7
20260906091534 58 274 0.0 0.0 0.00 0.01 0.00 97 1015.6
20260906090032 58 274 0.0 0.0 0.00 0.01 0.00 97 1015.2
20260906084532 58 274 0.0 0.0 0.00 0.01 0.00 97 1015.2
20260906083032 58 274 0.0 1.0 0.00 0.01 0.00 97 1015.1
20260906081530 58 274 0.0 0.0 0.00 0.01 0.00 97 1015.1
20260906080028 58 274 0.0 0.0 0.00 0.01 0.00 97 1015.1
20260906074528 58 274 0.0 0.0 0.00 0.01 0.00 97 1015.0
20260906073031 59 274 0.0 2.0 0.00 0.01 0.00 97 1014.9
20260906071527 59 274 0.0 0.0 0.00 0.01 0.00 97 1014.8
20260906070026 58 274 0.0 0.0 0.00 0.01 0.00 97 1014.7
20260906064525 58 274 0.0 0.0 0.00 0.01 0.00 97 1014.8
20260906063025 59 274 0.0 0.0 0.00 0.01 0.00 96 1014.7
20260906061524 59 274 0.0 0.0 0.00 0.01 0.00 96 1014.8
20260906060027 59 274 0.0 0.0 0.00 0.01 0.00 96 1014.8
20260906054537 59 274 0.0 0.0 0.00 0.01 0.00 96 1014.8
20260906053022 59 274 0.0 0.0 0.00 0.01 0.00 96 1014.9
20260906051522 59 274 0.0 0.0 0.00 0.01 0.00 96 1014.9
20260906050021 60 274 0.0 0.0 0.00 0.01 0.00 96 1014.8
20260906044520 59 274 0.0 0.0 0.00 0.01 0.00 96 1014.8
20260906043020 59 274 0.0 0.0 0.00 0.01 0.00 96 1015.0
20260906041518 59 274 0.0 0.0 0.00 0.01 0.00 96 1014.9
20260906040024 59 274 0.0 0.0 0.00 0.01 0.00 96 1014.9
20260906034515 59 274 0.0 0.0 0.00 0.01 0.01 94 1014.7
20260906033033 60 274 0.0 0.0 0.00 0.01 0.01 95 1014.7
20260906031512 60 274 0.0 0.0 0.00 0.01 0.01 94 1014.6
20260906030010 61 274 0.0 0.0 0.00 0.01 0.01 93 1014.4
20260906024510 62 274 0.0 0.0 0.00 0.01 0.01 93 1014.2
20260906023009 62 274 0.0 0.0 0.00 0.01 0.01 92 1014.2
20260906021510 63 274 0.0 0.0 0.00 0.01 0.01 92 1014.3
20260906020008 63 274 0.0 0.0 0.00 0.01 0.01 91 1014.3
20260906014506 64 274 0.0 0.0 0.00 0.01 0.01 89 1014.1
20260906013006 64 274 0.0 0.0 0.00 0.01 0.01 88 1014.0
20260906011511 64 274 0.0 0.0 0.00 0.01 0.01 88 1014.1
20260906010004 64 274 0.0 0.0 0.00 0.01 0.01 88 1014.0
20260906004503 64 274 0.0 0.0 0.00 0.01 0.01 89 1013.9
20260906003003 64 274 0.0 0.0 0.00 0.01 0.01 90 1013.7
20260906001502 65 274 0.0 0.0 0.00 0.01 0.01 91 1013.9
20260906000001 65 274 0.0 0.0 0.00 0.01 0.01 94 1013.8
20260905234601 65 274 0.0 0.0 0.00 0.01 0.01 93 1013.6
20260905233103 66 274 0.0 0.0 0.00 0.01 0.01 92 1013.4
20260905231600 67 274 0.0 0.0 0.00 0.01 0.01 92 1013.4
20260905230106 67 274 0.0 0.0 0.00 0.01 0.01 92 1013.4
20260905224616 67 274 0.0 0.0 0.00 0.01 0.01 92 1013.5
20260905223111 68 274 0.0 0.0 0.00 0.01 0.01 89 1013.4
20260905221603 67 274 0.0 0.0 0.00 0.01 0.01 88 1013.1
20260905220057 68 274 0.0 0.0 0.00 0.01 0.01 88 1012.8
20260905214601 68 274 0.0 0.0 0.00 0.01 0.01 87 1012.8
20260905213102 69 274 0.0 0.0 0.00 0.01 0.01 86 1012.8
20260905211557 69 274 0.0 0.0 0.00 0.01 0.01 89 1012.7
20260905210101 70 274 0.0 0.0 0.00 0.01 0.01 87 1012.6
20260905204554 70 274 0.0 1.0 0.00 0.01 0.01 88 1012.7
20260905203055 69 274 0.0 0.0 0.01 0.01 0.01 89 1012.6
20260905201552 68 274 0.0 0.0 0.01 0.01 0.01 90 1012.7